Weather History for Newport Airport, OR

Change the Weather History Date:

Thursday, February 21, 2013

  Actual Average Record
Temperature  
Mean Temperature 42 °F -  
Max Temperature 44 °F 51 °F 62 °F (2009)
Min Temperature 41 °F 40 °F 32 °F (2014)
Degree Days  
Heating Degree Days 22    
Moisture  
Dew Point 40 °F    
Average Humidity 86    
Maximum Humidity 100    
Minimum Humidity 71    
Precipitation  
Precipitation 0.18 in - - ()
Sea Level Pressure  
Sea Level Pressure 30.23 in    
Wind  
Wind Speed 10 mph (SW)    
Max Wind Speed 22 mph    
Max Gust Speed 29 mph    
Visibility 5 miles    
Events Rain    
Averages and records for this station are not official NWS values.
T = Trace of Precipitation, MM = Missing Value Source: NWS Daily Summary

Daily Weather History Graph

Daily Weather History Graph

Search for Another Location

Airport:

Trip Planner

Search our weather history database for the weather conditions in past years. The results will help you decide how hot, cold, wet, or windy it might be!

Date:

Astronomy

Feb. 21, 2013 Rise Set
Actual Time 7:06 AM PST 5:53 PM PST
Civil Twilight 6:36 AM PST 6:23 PM PST
Nautical Twilight 6:03 AM PST 6:57 PM PST
Astronomical Twilight 5:29 AM PST 7:31 PM PST
Moon 2:07 PM PST (2/21) 4:21 AM PST (2/21)
Length of Visible Light 11h 46m
Length of Day
10h 47m
Waxing Gibbous, 84% of the Moon is Illuminated
Feb 21
Waxing Gibbous
Feb 25
Full
Mar 4
Last Quarter
Mar 11
New
Mar 19
First Quarter

Hourly Weather History & Observations

Time (PST) Temp. Windchill Dew Point Humidity Pressure Visibility Wind Dir Wind Speed Gust Speed Precip Events Conditions
12:15 AM 44.6 °F 39.2 °F 37.4 °F 76% 30.18 in 7.0 mi NW 10.4 mph - N/A   Overcast
12:35 AM 44.6 °F 38.8 °F 37.4 °F 76% 30.18 in 7.0 mi WNW 11.5 mph - N/A   Overcast
12:55 AM 44.6 °F 39.7 °F 37.4 °F 76% 30.18 in 7.0 mi WNW 9.2 mph - N/A   Scattered Clouds
1:15 AM 42.8 °F 37.0 °F 37.4 °F 81% 30.19 in 7.0 mi WNW 10.4 mph 16.1 mph N/A Rain Light Rain
1:35 AM 42.8 °F 41.1 °F 37.4 °F 81% - 7.0 mi WNW 3.5 mph - 0.01 in   Light Drizzle
1:55 AM 44.6 °F 40.2 °F 39.2 °F 81% 30.20 in 7.0 mi WNW 8.1 mph - 0.01 in   Overcast
2:15 AM 44.6 °F 39.2 °F 37.4 °F 76% 30.21 in 7.0 mi WNW 10.4 mph - N/A   Overcast
2:35 AM 44.6 °F 40.2 °F 35.6 °F 71% 30.20 in 7.0 mi WNW 8.1 mph - N/A   Overcast
2:55 AM 44.6 °F 39.2 °F 37.4 °F 76% 30.21 in 7.0 mi West 10.4 mph - N/A   Overcast
3:15 AM 44.6 °F 39.2 °F 37.4 °F 76% 30.21 in 7.0 mi West 10.4 mph - N/A   Overcast
3:55 AM 44.6 °F 42.2 °F 35.6 °F 71% 30.20 in 7.0 mi WSW 4.6 mph - N/A   Mostly Cloudy
4:15 AM 44.6 °F 42.2 °F 37.4 °F 76% 30.20 in 5.0 mi West 4.6 mph - N/A   Haze
4:35 AM 44.6 °F 39.7 °F 37.4 °F 76% 30.21 in 7.0 mi WSW 9.2 mph - N/A   Drizzle
4:55 AM 42.8 °F 38.0 °F 37.4 °F 81% 30.21 in 7.0 mi WNW 8.1 mph - N/A   Overcast
5:15 AM 44.6 °F 40.2 °F 35.6 °F 71% 30.21 in 7.0 mi West 8.1 mph - N/A   Overcast
5:35 AM 44.6 °F 40.2 °F 35.6 °F 71% 30.23 in 7.0 mi West 8.1 mph - N/A   Overcast
5:55 AM 44.6 °F 40.2 °F 37.4 °F 76% - 7.0 mi NW 8.1 mph - N/A   Overcast
6:15 AM 42.8 °F 40.1 °F 37.4 °F 81% 30.23 in 7.0 mi WNW 4.6 mph - N/A   Overcast
6:35 AM 44.6 °F 40.2 °F 35.6 °F 71% 30.23 in 7.0 mi WSW 8.1 mph - N/A   Overcast
6:55 AM 44.6 °F 41.4 °F 37.4 °F 76% 30.23 in 7.0 mi WSW 5.8 mph - N/A   Overcast
7:15 AM 44.6 °F 38.4 °F 37.4 °F 76% 30.24 in 7.0 mi WSW 12.7 mph 16.1 mph N/A   Light Drizzle
7:35 AM 42.8 °F 36.2 °F 37.4 °F 81% 30.25 in 5.0 mi West 12.7 mph 17.3 mph N/A   Light Drizzle
7:55 AM 42.8 °F 37.5 °F 37.4 °F 81% 30.26 in 4.0 mi West 9.2 mph 17.3 mph N/A Rain Rain
8:15 AM 42.8 °F 38.6 °F 35.6 °F 76% 30.26 in 4.0 mi West 6.9 mph - N/A   Drizzle
8:35 AM 42.8 °F 38.0 °F 37.4 °F 81% 30.26 in 5.0 mi West 8.1 mph 16.1 mph N/A   Light Drizzle
8:55 AM 41.0 °F 36.4 °F 37.4 °F 87% 30.27 in 4.0 mi WSW 6.9 mph - N/A   Drizzle
9:15 AM 41.0 °F 35.8 °F 37.4 °F 87% 30.27 in 3.0 mi SW 8.1 mph - 0.01 in   Drizzle
9:35 AM 42.8 °F 37.5 °F 39.2 °F 87% 30.27 in 4.0 mi WSW 9.2 mph - 0.01 in   Drizzle
9:55 AM 42.8 °F 36.6 °F 41.0 °F 93% 30.28 in 3.0 mi WSW 11.5 mph - 0.02 in Rain Heavy Rain
10:15 AM 42.8 °F 37.5 °F 39.2 °F 87% 30.27 in 5.0 mi WSW 9.2 mph - 0.01 in   Drizzle
10:35 AM 42.8 °F 36.6 °F 39.2 °F 87% 30.27 in 4.0 mi WSW 11.5 mph 17.3 mph 0.02 in   Drizzle
10:55 AM 42.8 °F 36.2 °F 39.2 °F 87% 30.27 in 5.0 mi SW 12.7 mph - 0.03 in   Drizzle
11:15 AM 42.8 °F 36.6 °F 41.0 °F 93% 30.27 in 4.0 mi SW 11.5 mph - 0.01 in Rain Light Rain
11:35 AM 42.8 °F 36.6 °F 41.0 °F 93% - 7.0 mi SSE 11.5 mph - 0.02 in   Overcast
11:55 AM 42.8 °F 37.5 °F 41.0 °F 93% 30.24 in 10.0 mi SSE 9.2 mph - 0.02 in   Overcast
12:15 PM 42.8 °F 37.5 °F 41.0 °F 93% 30.24 in 10.0 mi South 9.2 mph - N/A   Overcast
12:35 PM 44.6 °F 39.7 °F 41.0 °F 87% 30.24 in 10.0 mi SSW 9.2 mph - N/A   Overcast
12:55 PM 44.6 °F 39.7 °F 41.0 °F 87% 30.24 in 5.0 mi SSW 9.2 mph - N/A   Overcast
1:15 PM 44.6 °F 37.2 °F 41.0 °F 87% 30.24 in 5.0 mi SSW 17.3 mph 21.9 mph N/A   Overcast
1:35 PM 44.6 °F 37.2 °F 41.0 °F 87% 30.24 in 7.0 mi SSW 17.3 mph 20.7 mph N/A   Overcast
1:55 PM 44.6 °F 36.4 °F 41.0 °F 87% 30.24 in 5.0 mi SSW 20.7 mph 27.6 mph N/A Rain Light Rain
2:15 PM 44.6 °F 37.8 °F 41.0 °F 87% 30.23 in 5.0 mi SSW 15.0 mph - N/A   Overcast
2:35 PM 44.6 °F 36.6 °F 41.0 °F 87% 30.22 in 5.0 mi SSW 19.6 mph 25.3 mph N/A   Overcast
2:55 PM 44.6 °F 36.4 °F 41.0 °F 87% 30.22 in 5.0 mi SSW 20.7 mph 27.6 mph N/A   Light Drizzle
3:15 PM 44.6 °F 36.1 °F 42.8 °F 93% 30.21 in 5.0 mi SSW 21.9 mph 26.5 mph N/A   Overcast
3:35 PM 44.6 °F 36.6 °F 42.8 °F 93% 30.20 in 3.0 mi SSW 19.6 mph 25.3 mph N/A   Light Drizzle
3:55 PM 44.6 °F 36.9 °F 42.8 °F 93% 30.20 in 2.0 mi SSW 18.4 mph 26.5 mph N/A Rain Light Rain
4:15 PM 44.6 °F 37.8 °F 42.8 °F 93% 30.20 in 2.5 mi SW 15.0 mph 24.2 mph 0.01 in Rain Light Rain
4:35 PM 44.6 °F 36.6 °F 42.8 °F 93% 30.20 in 2.5 mi SSW 19.6 mph 27.6 mph 0.02 in Rain Rain
4:55 PM 44.6 °F 36.9 °F 42.8 °F 93% 30.20 in 1.8 mi SW 18.4 mph 28.8 mph 0.05 in Rain Light Rain
5:15 PM 44.6 °F 36.1 °F 42.8 °F 93% 30.21 in 1.5 mi SW 21.9 mph 27.6 mph 0.02 in Rain Rain
5:35 PM 44.6 °F 36.9 °F 42.8 °F 93% 30.21 in 2.5 mi SW 18.4 mph 23.0 mph 0.05 in Rain Light Rain
5:55 PM 44.6 °F 36.6 °F 42.8 °F 93% 30.21 in 4.0 mi SSW 19.6 mph 23.0 mph 0.05 in   Overcast
6:15 PM 44.6 °F 36.9 °F 42.8 °F 93% 30.21 in 5.0 mi SSW 18.4 mph 24.2 mph N/A   Overcast
6:35 PM 44.6 °F 38.1 °F 44.6 °F 100% 30.21 in 5.0 mi SSW 13.8 mph - N/A   Overcast
6:55 PM 44.6 °F 39.2 °F 42.8 °F 93% 30.22 in 5.0 mi SSW 10.4 mph - N/A   Overcast
7:15 PM 44.6 °F 40.7 °F 44.6 °F 100% 30.22 in 4.0 mi SSW 6.9 mph - N/A   Overcast
7:35 PM 44.6 °F 40.2 °F 44.6 °F 100% 30.22 in 3.0 mi SSW 8.1 mph - N/A   Overcast
7:55 PM 44.6 °F 40.7 °F 44.6 °F 100% 30.23 in 3.0 mi SW 6.9 mph - N/A   Overcast
8:15 PM 44.6 °F 41.4 °F 44.6 °F 100% 30.21 in 4.0 mi SW 5.8 mph - N/A   Mostly Cloudy
8:35 PM 44.6 °F 41.4 °F 42.8 °F 93% 30.22 in 4.0 mi SW 5.8 mph - N/A   Mostly Cloudy
8:55 PM 44.6 °F 41.4 °F 42.8 °F 93% 30.22 in 4.0 mi WSW 5.8 mph - N/A   Overcast
9:15 PM 44.6 °F 40.7 °F 42.8 °F 93% 30.22 in 4.0 mi WSW 6.9 mph - N/A   Scattered Clouds
9:35 PM 44.6 °F 41.4 °F 42.8 °F 93% 30.21 in 4.0 mi SW 5.8 mph - N/A   Scattered Clouds
10:15 PM 44.6 °F 41.4 °F 42.8 °F 93% 30.23 in 4.0 mi WSW 5.8 mph - N/A   Overcast
10:55 PM 44.6 °F 40.7 °F 42.8 °F 93% 30.23 in 4.0 mi SSW 6.9 mph - N/A   Overcast
11:15 PM 44.6 °F 40.2 °F 42.8 °F 93% 30.24 in 4.0 mi SSW 8.1 mph - N/A   Mostly Cloudy
11:35 PM 44.6 °F 40.2 °F 42.8 °F 93% 30.23 in 4.0 mi SSW 8.1 mph - N/A   Mostly Cloudy
11:55 PM 44.6 °F 42.2 °F 42.8 °F 93% 30.24 in 3.0 mi SSW 4.6 mph - N/A   Mostly Cloudy